Regional Weather Roundup
Issued by NWS Cleveland, OH

Home | Current Version | Previous Version | Graphics & Text | Print | Product List | Glossary On
Versions: 1 2 3 4 5 6 7 8 9 10 11 12 13 14 15 16 17 18 19 20 21 22 23 24 25 26 27 28 29 30 31 32 33 34 35 36 37 38 39 40 41 42 43 44 45 46 47 48 49 50
980
ASUS41 KCLE 151310
RWRCLE
OHIO REGIONAL WEATHER ROUNDUP
NATIONAL WEATHER SERVICE CLEVELAND, OH
800 AM EST FRI DEC 15 2017

NOTE: "FAIR" INDICATES FEW OR NO CLOUDS BELOW 12,000 FEET WITH NO
SIGNIFICANT WEATHER AND/OR OBSTRUCTIONS TO VISIBILITY.

OHZ001>008-015>018-024>027-034-035-043-044-151400-
   NORTHWEST OHIO

CITY           SKY/WX    TMP DP  RH WIND       PRES   REMARKS
DEFIANCE       CLOUDY    23  14  68 SW10      29.94F WCI  12
FINDLAY        CLOUDY    22  12  65 S14       29.95F WCI   9
TOLEDO EXPRESS CLOUDY    22  14  71 S8        29.93F WCI  12
TOLEDO EXEC    CLOUDY    21  12  68 S13       29.95F WCI   9
LIMA           CLOUDY    21  14  74 S9        29.95F WCI  11
$$

OHZ009>014-019>023-028>033-038-089-151400-
   NORTHEAST OHIO

CITY           SKY/WX    TMP DP  RH WIND       PRES   REMARKS
CLE-HOPKINS    CLOUDY    13   8  81 S7        30.00F WCI   3
CLE-LAKEFRONT  CLOUDY    16   8  71 S7        29.98F WCI   6
CUY CO. ARPT   CLOUDY    18  10  73 S7        29.97F WCI   8
LORAIN-ELYRIA  CLOUDY    10   3  73 S7        29.97F WCI  -1
ASHTABULA      PTCLDY     9   6  88 S7        29.96F WCI  -2
AKRON-CANTON   CLOUDY    11   7  84 SW5       29.96F WCI   3
WOOSTER        CLOUDY     6   3  87 CALM      29.97F FOG
MANSFIELD      CLOUDY    14   8  77 S6        29.95F WCI   5
YOUNGSTOWN     CLOUDY    12   9  87 S5        29.95F FOG     WCI   4
$$

OHZ042-051>053-060>062-070>072-077>081-151400-
  SOUTHWEST OHIO

CITY           SKY/WX    TMP DP  RH WIND       PRES   REMARKS
CINC-COVINGTON CLOUDY    20  18  92 S3        30.02S FOG
CINC-LUNKEN    PTCLDY    21  17  84 S6        30.06S WCI  13
HAMILTON       CLOUDY    19  18  95 CALM      30.05R
DAYTON         MOCLDY    20  17  88 SW9       30.00S WCI   9
WRIGHT-PAT AFB CLOUDY    21  18  88 S7        30.00S WCI  12
DAYTON GENERAL CLOUDY    20  16  84 S5        29.99F WCI  13
WILMINGTON     PTCLDY    18  17  96 SW5       30.00R WCI  11
$$

OHZ036-037-039>041-045>050-054>059-063>069-073>076-082>088-151400-
  CENTRAL AND SOUTHEAST OHIO

CITY           SKY/WX    TMP DP  RH WIND       PRES   REMARKS
COLUMBUS       CLOUDY    21  16  81 S3        30.00F
OSU AIRPORT    CLOUDY    20  17  88 SW5       29.99F WCI  13
BOLTON FIELD   MOCLDY    18  16  93 CALM      30.01S
RICKENBACK AFB CLOUDY    19  18  95 CALM      30.01S FOG
NEWARK         CLOUDY    18  15  88 CALM      29.99F
MARION         CLOUDY    16  11  80 S8        29.98  WCI   5
LANCASTER      CLOUDY    19  16  88 CALM      30.00F FOG
ZANESVILLE     CLOUDY    19  16  88 CALM      29.99F FOG
NEW PHILLY     NOT AVBL
$$




USA.gov is the U.S. government's official web portal to all federal, state and local government web resources and services.